#timestamp,LO_Frequency,Hit,StdDev 
1634047215.3,286047003.3,N
1634047235.1,286047005.4,N
1634047255.9,286047005.0,N
1634047275.7,286047006.4,Y
1634047295.5,286047004.3,P
1634047315.4,286047006.0,P
1634047335.2,286047002.9,N
1634047355.0,286047005.9,Y
1634047355.9,286047005.9,P
1634047375.8,286047002.3,N
1634047395.6,286047001.0,N
1634047415.4,286047002.7,N
1634047435.3,286047002.1,N
1634047455.1,286047001.5,N
1634047475.8,286047006.0,Y
1634047495.7,286047002.1,P
1634047515.5,286047002.7,P
1634047535.3,286047000.5,N
1634047555.2,286047001.0,N
1634047575.0,286046998.5,N
1634047575.9,286046998.5,N
1634047595.7,286046999.3,N
1634047615.6,286046999.4,N
1634047635.4,286046998.9,N
1634047655.2,286047000.5,N
1634047675.1,286046998.4,N
1634047676.0,286046998.4,N
1634047695.8,286046998.7,N
1634047715.6,286047000.9,N
1634047735.5,286047001.0,N
1634047755.3,286046999.8,N
1634047775.1,286047004.1,N
1634047795.9,286047003.0,N
1634047815.7,286047003.9,N
1634047835.5,286047003.8,N
1634047855.4,286047003.2,N
1634047875.2,286047004.0,N
1634047895.0,286047003.7,N
1634047895.9,286047003.7,N
1634047915.8,286047004.3,N
1634047935.6,286047002.2,N
1634047955.4,286047001.7,N
1634047975.3,286047001.7,N
1634047995.1,286047003.0,N
1634047996.0,286047003.0,N
1634048015.8,286047005.2,N
1634048035.7,286047003.3,N
1634048055.5,286047005.3,N
1634048075.3,286047003.6,N
1634048095.2,286047003.3,N
1634048115.9,286047003.4,N
1634048135.7,286047005.6,N
1634048155.6,286047003.3,N
1634048175.4,286047006.0,N
1634048195.2,286047005.5,N
1634048215.1,286047004.5,N
1634048216.0,286047004.5,N
1634048235.8,286047006.3,Y
1634048255.6,286047001.7,P
1634048275.5,286047002.1,N
1634048295.3,286047004.2,P
1634048315.1,286047004.1,Y
1634048335.9,286046996.6,P
1634048355.7,286046999.4,N
1634048375.5,286046997.5,N
1634048395.4,286046999.6,N
1634048415.2,286046998.9,N
1634048435.0,286046996.6,N
1634048435.9,286046996.6,N
1634048455.8,286046998.5,N
1634048475.6,286047000.5,N
1634048495.4,286046998.2,N
1634048515.3,286046998.1,N
1634048535.1,286046998.6,N
1634048536.0,286046998.6,N
1634048555.8,286046996.5,N
1634048575.7,286046996.6,N
1634048595.5,286046999.4,N
1634048615.3,286046997.7,N
1634048635.2,286046997.1,N
1634048655.9,286046996.8,N
1634048675.7,286046997.2,N
1634048695.6,286046996.6,N
1634048715.4,286046999.2,N
1634048735.2,286046998.9,N
1634048755.1,286046999.0,N
1634048756.0,286046999.0,N
1634048775.8,286046997.2,N
1634048795.6,286046997.7,N
1634048815.5,286046997.3,N
1634048835.3,286046997.4,N
1634048855.1,286046995.0,Y
1634048875.9,286047000.5,P
1634048895.7,286046999.3,N
1634048915.5,286046997.2,N
1634048935.4,286046995.2,Y
1634048955.2,286046996.9,P
1634048975.0,286046999.4,N
1634048975.9,286046999.4,N
1634048995.8,286046999.3,N
1634049015.6,286046999.5,N
1634049035.4,286046994.9,Y
1634049055.3,286046997.5,P
1634049075.1,286046996.7,P
1634049095.8,286046995.5,P
1634049115.7,286046994.3,Y
1634049135.5,286046996.6,P
1634049155.3,286046996.6,P
1634049175.2,286046999.3,N
1634049195.0,286046998.7,N
1634049195.9,286046998.7,N
1634049215.7,286046996.6,Y
1634049235.6,286047001.0,P
1634049255.4,286046999.3,N
1634049275.2,286046999.4,N
1634049295.1,286046996.5,Y
1634049296.0,286046996.5,P
1634049315.8,286046998.8,N
1634049335.6,286046998.5,N
1634049355.5,286046999.0,N
1634049375.3,286046999.2,N
1634049395.1,286046997.6,N
1634049415.9,286046995.6,Y
1634049435.7,286046997.8,P
1634049455.5,286046996.8,P
1634049475.4,286046999.2,N
1634049495.2,286046997.2,Y
1634049515.1,286046998.7,P
1634049516.0,286046998.7,P
1634049535.8,286046998.3,P
1634049555.6,286046999.3,N
1634049575.5,286046997.8,Y
1634049595.3,286046997.0,P
1634049615.1,286046995.2,P
1634049635.9,286046996.1,N
1634049655.7,286046997.7,N
1634049675.5,286046995.9,Y
1634049695.4,286046999.4,P
1634049715.2,286046996.7,N
1634049735.0,286046998.6,N
1634049735.9,286046998.6,N
1634049755.8,286046997.1,N
1634049775.6,286046998.0,N
1634049795.4,286046995.1,Y
1634049815.3,286046999.3,P
1634049835.1,286046995.3,P
1634049836.0,286046995.3,N
1634049855.8,286046995.8,N
1634049875.7,286046993.3,Y
1634049895.5,286046999.2,P
1634049915.3,286046998.6,N
1634049935.2,286046999.3,N
1634049955.9,286046999.0,N
1634049975.7,286046999.2,N
1634049995.6,286046997.4,N
1634050015.4,286046995.2,Y
1634050035.2,286046996.9,P
1634050055.1,286046998.5,N
1634050056.0,286046998.5,N
1634050075.8,286046998.3,N
1634050095.6,286046997.2,Y
1634050115.5,286046999.5,P
1634050135.3,286046999.4,N
1634050155.1,286046999.3,N
1634050175.9,286046998.4,N
1634050195.7,286046999.6,N
1634050215.5,286046994.9,Y
1634050235.4,286046996.2,P
1634050255.2,286046995.6,P
1634050275.0,286046995.9,N
1634050275.9,286046995.9,N
1634050295.8,286046994.1,Y
1634050315.6,286046997.1,P
1634050335.4,286046995.0,P
1634050355.3,286046995.2,P
1634050375.1,286046993.9,Y
1634050395.8,286046997.0,P
1634050415.7,286046996.5,P
1634050435.5,286046998.6,P
1634050455.3,286046998.8,N
1634050475.2,286046996.9,N
1634050495.0,286046997.9,N
1634050495.9,286046997.9,N
1634050515.8,286046995.1,Y
1634050535.6,286046997.9,P
1634050555.4,286046997.5,P
1634050575.2,286046997.9,P
1634050595.1,286046995.2,Y
1634050596.0,286046995.2,P
1634050615.8,286046996.8,N
1634050635.7,286046999.5,N
1634050655.5,286046999.0,N
1634050675.3,286046999.4,N
1634050695.2,286046997.2,N
1634050715.9,286046997.4,N
1634050735.7,286046997.4,N
1634050755.6,286046997.7,N
1634050775.4,286046997.5,N
1634050795.2,286046994.9,Y
